Total_Precipitation_Accumulation
0.01 0.01 0.00 0.00 0.00 0.00 0.00 0.00 0.00 0.00 0.00 0.00 0.00 0.00 0.00 0.00 0.00 0.01 0.02 0.02 0.03 0.02 0.03 0.06 0.05 0.03 0.03 0.01 0.01 0.01 0.02 0.03 0.03 0.00 0.00 0.00 0.01 0.01 0.00 0.00 0.01 0.01 0.00
0.04 0.03 0.01 0.00 0.00 0.00 0.00 0.00 0.00 0.00 0.00 0.00 0.00 0.00 0.00 0.00 0.00 0.00 0.00 0.00 0.01 0.01 0.00 0.00 0.01 0.01 0.01 0.00 0.01 0.01 0.01 0.04 0.05 0.02 0.02 0.01 0.01 0.01 0.00 0.00 0.00 0.00 0.00
0.06 0.01 0.00 0.00 0.00 0.00 0.00 0.00 0.00 0.00 0.00 0.00 0.00 0.00 0.00 0.00 0.00 0.00 0.00 0.00 0.00 0.00 0.01 0.01 0.01 0.01 0.01 0.01 0.00 0.00 0.00 0.00 0.02 0.03 0.01 0.02 0.02 0.01 0.02 0.01 0.01 0.00 0.00
0.14 0.16 0.05 0.01 0.00 0.00 0.00 0.00 0.00 0.00 0.00 0.00 0.00 0.00 0.00 0.00 0.00 0.00 0.00 0.00 0.00 0.00 0.00 0.00 0.01 0.01 0.01 0.02 0.02 0.01 0.01 0.01 0.01 0.01 0.01 0.00 0.01 0.00 0.02 0.01 0.01 0.01 0.00
0.35 0.23 0.13 0.04 0.02 0.00 0.00 0.00 0.00 0.00 0.00 0.00 0.00 0.00 0.00 0.00 0.00 0.00 0.00 0.00 0.00 0.00 0.00 0.00 0.00 0.00 0.00 0.00 0.00 0.00 0.01 0.01 0.01 0.01 0.00 0.00 0.00 0.01 0.02 0.01 0.02 0.01 0.01
0.12 0.17 0.16 0.13 0.08 0.04 0.03 0.02 0.01 0.00 0.00 0.00 0.00 0.00 0.00 0.00 0.00 0.00 0.00 0.00 0.00 0.00 0.00 0.00 0.00 0.00 0.00 0.00 0.00 0.00 0.00 0.00 0.00 0.00 0.00 0.00 0.00 0.00 0.00 0.01 0.01 0.01 0.01
0.07 0.08 0.09 0.12 0.13 0.14 0.11 0.06 0.08 0.06 0.03 0.03 0.02 0.01 0.00 0.00 0.00 0.00 0.00 0.00 0.00 0.00 0.00 0.00 0.00 0.00 0.00 0.00 0.00 0.00 0.00 0.00 0.00 0.00 0.01 0.01 0.00 0.00 0.00 0.01 0.01 0.02 0.05
0.06 0.05 0.06 0.05 0.05 0.08 0.11 0.12 0.14 0.10 0.07 0.06 0.09 0.12 0.11 0.09 0.07 0.03 0.03 0.02 0.02 0.01 0.01 0.01 0.02 0.02 0.03 0.03 0.00 0.00 0.00 0.00 0.01 0.01 0.01 0.04 0.09 0.08 0.08 0.13 0.17 0.18 0.19
0.11 0.09 0.11 0.11 0.06 0.04 0.04 0.05 0.08 0.09 0.09 0.12 0.16 0.20 0.19 0.16 0.23 0.09 0.05 0.05 0.07 0.06 0.08 0.10 0.08 0.05 0.10 0.12 0.09 0.07 0.12 0.29 0.39 0.38 0.50 0.45 0.40 0.36 0.34 0.33 0.48 0.70 0.74
0.11 0.07 0.05 0.06 0.04 0.01 0.01 0.03 0.06 0.04 0.05 0.09 0.14 0.18 0.24 0.12 0.23 0.15 0.12 0.11 0.14 0.11 0.10 0.13 0.31 0.19 0.12 0.10 0.10 0.09 0.12 0.19 0.26 0.23 0.29 0.32 0.30 0.28 0.32 0.24 0.25 0.41 0.67
0.02 0.03 0.01 0.01 0.00 0.00 0.00 0.00 0.01 0.02 0.04 0.09 0.14 0.13 0.12 0.14 0.17 0.16 0.11 0.14 0.21 0.25 0.22 0.18 0.19 0.32 0.17 0.20 0.29 0.39 0.67 0.86 0.86 0.74 0.65 0.58 0.48 0.42 0.42 0.44 0.45 0.52 0.68
0.01 0.00 0.00 0.00 0.00 0.00 0.00 0.00 0.00 0.00 0.03 0.05 0.09 0.09 0.09 0.09 0.18 0.13 0.11 0.16 0.30 0.37 0.51 0.50 0.57 0.61 0.49 0.59 0.75 0.97 1.05 0.98 0.88 0.86 0.84 0.79 0.74 0.68 0.65 0.60 0.58 0.59 0.63
0.01 0.01 0.00 0.00 0.00 0.00 0.00 0.00 0.00 0.00 0.01 0.02 0.05 0.08 0.10 0.08 0.09 0.13 0.09 0.11 0.20 0.31 0.49 0.61 0.57 0.47 0.40 0.43 0.53 0.61 0.66 0.70 0.83 0.97 1.03 1.04 1.00 0.94 0.87 0.81 0.77 0.71 0.65
0.00 0.00 0.00 0.00 0.00 0.00 0.00 0.00 0.00 0.00 0.00 0.00 0.01 0.03 0.05 0.05 0.07 0.07 0.08 0.09 0.13 0.20 0.29 0.37 0.50 0.47 0.44 0.45 0.49 0.53 0.58 0.70 0.78 0.86 0.90 0.92 0.87 0.81 0.75 0.69 0.59 0.52 0.42
0.00 0.00 0.00 0.00 0.00 0.00 0.01 0.02 0.02 0.03 0.01 0.01 0.01 0.01 0.01 0.04 0.06 0.11 0.16 0.18 0.18 0.18 0.18 0.21 0.28 0.31 0.32 0.35 0.36 0.36 0.37 0.41 0.43 0.46 0.46 0.46 0.44 0.41 0.35 0.28 0.20 0.15 0.11
0.00 0.00 0.00 0.00 0.00 0.00 0.00 0.01 0.03 0.03 0.01 0.01 0.01 0.02 0.04 0.05 0.04 0.06 0.08 0.12 0.13 0.12 0.10 0.13 0.18 0.25 0.29 0.29 0.27 0.25 0.25 0.24 0.25 0.22 0.21 0.18 0.15 0.11 0.07 0.03 0.02 0.02 0.01
0.01 0.01 0.01 0.01 0.01 0.00 0.00 0.00 0.02 0.01 0.01 0.02 0.02 0.03 0.03 0.04 0.02 0.02 0.02 0.02 0.03 0.02 0.03 0.05 0.07 0.08 0.10 0.11 0.11 0.11 0.11 0.10 0.09 0.06 0.04 0.03 0.01 0.01 0.01 0.01 0.01 0.00 0.00
0.01 0.02 0.02 0.02 0.02 0.01 0.01 0.01 0.01 0.01 0.01 0.02 0.03 0.04 0.04 0.03 0.02 0.02 0.01 0.00 0.02 0.02 0.04 0.05 0.06 0.07 0.07 0.07 0.07 0.06 0.04 0.02 0.01 0.01 0.01 0.00 0.00 0.00 0.00 0.00 0.00 0.00 0.00
0.01 0.01 0.02 0.02 0.02 0.02 0.01 0.01 0.01 0.01 0.01 0.02 0.02 0.01 0.04 0.03 0.02 0.02 0.01 0.02 0.03 0.04 0.05 0.05 0.06 0.05 0.05 0.03 0.02 0.01 0.00 0.00 0.00 0.00 0.00 0.00 0.00 0.00 0.00 0.00 0.00 0.00 0.00
0.01 0.01 0.01 0.02 0.02 0.02 0.02 0.02 0.02 0.02 0.02 0.02 0.02 0.04 0.03 0.01 0.01 0.02 0.02 0.02 0.02 0.03 0.03 0.02 0.02 0.01 0.00 0.00 0.00 0.00 0.00 0.00 0.00 0.00 0.00 0.00 0.00 0.00 0.00 0.00 0.00 0.00 0.00
0.01 0.01 0.01 0.01 0.02 0.03 0.03 0.03 0.03 0.03 0.03 0.03 0.04 0.05 0.03 0.01 0.02 0.02 0.01 0.01 0.01 0.00 0.00 0.00 0.00 0.00 0.00 0.00 0.00 0.00 0.00 0.00 0.00 0.00 0.00 0.00 0.00 0.00 0.00 0.00 0.00 0.00 0.00
0.02 0.02 0.02 0.02 0.03 0.03 0.04 0.04 0.04 0.04 0.04 0.03 0.03 0.02 0.01 0.01 0.00 0.00 0.00 0.00 0.00 0.00 0.00 0.00 0.00 0.00 0.00 0.00 0.00 0.00 0.00 0.00 0.00 0.00 0.00 0.00 0.00 0.00 0.00 0.00 0.00 0.00 0.00
0.02 0.02 0.02 0.03 0.03 0.03 0.03 0.03 0.03 0.02 0.01 0.00 0.00 0.00 0.00 0.00 0.00 0.00 0.00 0.00 0.00 0.00 0.00 0.00 0.00 0.00 0.00 0.00 0.00 0.00 0.00 0.00 0.00 0.00 0.00 0.00 0.00 0.00 0.00 0.00 0.00 0.00 0.00
0.01 0.01 0.01 0.01 0.00 0.00 0.00 0.00 0.00 0.00 0.00 0.00 0.00 0.00 0.00 0.00 0.00 0.00 0.00 0.00 0.00 0.00 0.00 0.00 0.00 0.00 0.00 0.00 0.00 0.00 0.00 0.00 0.00 0.00 0.00 0.00 0.00 0.00 0.00 0.00 0.00 0.00 0.00
0.00 0.00 0.00 0.00 0.00 0.00 0.00 0.00 0.00 0.00 0.00 0.00 0.00 0.00 0.00 0.00 0.00 0.00 0.00 0.00 0.00 0.00 0.00 0.00 0.00 0.00 0.00 0.00 0.00 0.00 0.00 0.00 0.00 0.00 0.00 0.00 0.00 0.00 0.00 0.00 0.00 0.00 0.00
0.00 0.00 0.00 0.00 0.00 0.00 0.00 0.00 0.00 0.00 0.00 0.00 0.00 0.00 0.00 0.00 0.00 0.00 0.00 0.00 0.00 0.00 0.00 0.00 0.00 0.00 0.00 0.00 0.00 0.00 0.00 0.00 0.00 0.00 0.00 0.00 0.00 0.00 0.00 0.00 0.00 0.00 0.00